Voltar ao catálogo

MARAFON-D GVM

AtivoComunicaçõesPO
NORAD 59072·PAYLOAD·🇷🇺 Russia
Este nome de satélite ainda não foi confirmado por fontes oficiais.

Lançado Feb 29, 2024 de Vostochny Cosmodrome

Loading…

Próximas Passagens (próximas 24 horas)

TLE

AtualizadoSource: Space-Track

Época: Sep 14, 2026, 13:39 UTC

1 59072U 24039V   26257.56935833  .00000167  00000-0  42472-4 0  9992
2 59072  88.9758 273.0706 0018071  40.5896 319.6652 14.46041172134105

Acompanhe MARAFON-D GVM em tempo real com AllMySat

Download on the App Store